Date String (YYYY-MM-DD hh:mm:ss) UTC,Instrument flags,Ambient pressure (hPa),Sample flow (lpm),Bypass flow (lpm),Sample temperature (°C),Ambient temperature (°C),ASC tube jacket temperature (°C),LED temperature (°C),Box temperature (°C),Sample RH (%),Span deviation,Mass concentration (μg/m³),Mass concentration (μg/m³),Mass concentration (μg/m³)
DateTimeUTC,F1_M11,P_M11,Q1_M11,Q2_M11,T1_M11,T2_M11,T3_M11,T4_M11,T5_M11,U1_M11,ZSPAN_M11,X0_M11,X2_M11,X1_M11
2022-03-31 16:00:00,,0819.0,4.99,0.00,23.7,22.9,00.0,32.6,25.5,09.1,0000.0,0006.51,0002.82,0001.36
2022-03-31 16:01:00,,0819.0,5.00,0.00,23.7,22.9,00.0,32.6,25.5,09.1,0000.0,0006.24,0002.73,0001.36
2022-03-31 16:02:00,,0819.1,5.01,0.00,23.7,22.9,00.0,32.6,25.5,09.0,0000.0,0006.12,0002.68,0001.36
2022-03-31 16:03:00,,0819.1,5.02,0.00,23.7,22.9,00.0,32.6,25.5,09.3,0000.0,0005.75,0002.71,0001.36
2022-03-31 16:04:00,,0819.1,5.00,0.00,23.7,22.9,00.0,32.6,25.5,09.1,0000.0,0005.48,0002.67,0001.38
2022-03-31 16:05:00,,0819.1,4.99,0.00,23.7,22.9,00.0,32.6,25.5,09.1,0000.0,0005.32,0002.67,0001.39
2022-03-31 16:06:00,,0819.1,4.99,0.00,23.7,22.9,00.0,32.6,25.5,09.0,0000.0,0005.24,0002.68,0001.40
2022-03-31 16:07:00,,0819.1,5.00,0.00,23.8,22.9,00.0,32.6,25.5,09.5,0000.0,0005.01,0002.62,0001.39
2022-03-31 16:08:00,,0819.1,5.00,0.00,23.8,23.0,00.0,32.6,25.6,09.3,0000.0,0005.03,0002.63,0001.40
2022-03-31 16:09:00,,0819.1,5.00,0.00,23.8,23.0,00.0,32.6,25.6,08.8,0000.0,0006.41,0002.65,0001.40
2022-03-31 16:10:00,,0819.1,5.00,0.00,23.8,23.0,00.0,32.7,25.6,08.8,0000.0,0006.51,0002.64,0001.41
2022-03-31 16:11:00,,0819.1,5.00,0.00,23.8,23.0,00.0,32.7,25.6,08.8,0000.0,0006.65,0002.57,0001.40
2022-03-31 16:12:00,,0819.2,5.00,0.00,23.8,23.0,00.0,32.7,25.6,09.4,0000.0,0006.85,0002.59,0001.40
2022-03-31 16:13:00,,0819.2,5.01,0.00,23.8,23.0,00.0,32.7,25.6,09.7,0000.0,0006.90,0002.59,0001.41
2022-03-31 16:14:00,,0819.2,5.01,0.00,23.8,23.0,00.0,32.7,25.6,09.5,0000.0,0007.13,0002.58,0001.42
2022-03-31 16:15:00,,0819.2,5.00,0.00,23.8,23.0,00.0,32.7,25.5,10.1,0000.0,0007.28,0002.63,0001.41
2022-03-31 16:16:00,,0819.2,4.99,0.00,23.8,23.0,00.0,32.7,25.5,09.9,0000.0,0007.37,0002.66,0001.40
2022-03-31 16:17:00,,0819.2,5.00,0.00,23.8,23.0,00.0,32.7,25.5,09.0,0000.0,0007.44,0002.70,0001.42
2022-03-31 16:18:00,,0819.2,4.98,0.00,23.8,23.0,00.0,32.7,25.5,08.6,0000.0,0007.50,0002.74,0001.42
2022-03-31 16:19:00,,0819.2,5.00,0.00,23.8,23.0,00.0,32.7,25.6,09.1,0000.0,0007.44,0002.69,0001.41
2022-03-31 16:20:00,,0819.2,5.00,0.00,23.8,23.0,00.0,32.7,25.6,09.5,0000.0,0006.29,0002.68,0001.43
2022-03-31 16:21:00,,0819.2,5.00,0.00,23.8,23.0,00.0,32.7,25.6,09.4,0000.0,0005.99,0002.71,0001.44
2022-03-31 16:22:00,,0819.2,4.99,0.00,23.8,23.0,00.0,32.7,25.6,09.7,0000.0,0005.89,0002.80,0001.48
2022-03-31 16:23:00,,0819.2,5.00,0.00,23.8,23.1,00.0,32.7,25.6,09.6,0000.0,0005.83,0002.88,0001.52
2022-03-31 16:24:00,,0819.2,5.00,0.00,23.9,23.1,00.0,32.7,25.6,09.7,0000.0,0005.92,0002.93,0001.53
2022-03-31 16:25:00,,0819.1,5.00,0.00,23.9,23.1,00.0,32.8,25.6,08.6,0000.0,0005.89,0003.00,0001.56
2022-03-31 16:26:00,,0819.2,5.00,0.00,23.9,23.1,00.0,32.8,25.6,08.1,0000.0,0005.92,0003.03,0001.57
2022-03-31 16:27:00,,0819.2,5.00,0.00,23.9,23.1,00.0,32.8,25.7,07.9,0000.0,0006.23,0003.12,0001.57
2022-03-31 16:28:00,,0819.2,5.00,0.00,23.9,23.1,00.0,32.8,25.7,08.0,0000.0,0006.37,0003.15,0001.58
2022-03-31 16:29:00,,0819.1,5.00,0.00,23.9,23.1,00.0,32.8,25.7,08.3,0000.0,0006.28,0003.15,0001.60
2022-03-31 16:30:00,,0819.2,5.00,0.00,23.9,23.1,00.0,32.8,25.7,08.9,0000.0,0006.34,0003.18,0001.63
2022-03-31 16:31:00,,0819.1,5.01,0.00,23.9,23.2,00.0,32.8,25.7,08.7,0000.0,0006.59,0003.23,0001.65
2022-03-31 16:32:00,,0819.2,5.00,0.00,24.0,23.2,00.0,32.8,25.7,08.6,0000.0,0006.68,0003.24,0001.64
2022-03-31 16:33:00,,0819.1,4.99,0.00,24.0,23.2,00.0,32.8,25.8,08.3,0000.0,0006.85,0003.27,0001.63
2022-03-31 16:34:00,,0819.1,5.00,0.00,24.0,23.2,00.0,32.8,25.8,08.8,0000.0,0006.76,0003.25,0001.59
2022-03-31 16:35:00,,0819.1,5.00,0.00,24.0,23.2,00.0,32.8,25.9,08.5,0000.0,0007.11,0003.26,0001.57
2022-03-31 16:36:00,,0819.1,5.00,0.00,24.0,23.2,00.0,32.9,25.9,08.5,0000.0,0007.07,0003.24,0001.55
2022-03-31 16:37:00,,0819.1,5.00,0.00,24.0,23.2,00.0,32.9,25.9,08.2,0000.0,0006.95,0003.20,0001.53
2022-03-31 16:38:00,,0819.1,5.00,0.00,24.0,23.3,00.0,32.9,25.9,08.5,0000.0,0006.81,0003.14,0001.54
2022-03-31 16:39:00,,0819.1,5.00,0.00,24.1,23.3,00.0,32.9,25.9,08.0,0000.0,0006.52,0003.08,0001.53
2022-03-31 16:40:00,,0819.0,5.00,0.00,24.1,23.3,00.0,32.9,26.0,07.9,0000.0,0006.66,0003.12,0001.51
2022-03-31 16:41:00,,0819.0,5.01,0.00,24.1,23.3,00.0,32.9,26.0,08.1,0000.0,0006.83,0003.13,0001.48
2022-03-31 16:42:00,,0819.0,5.01,0.00,24.1,23.4,00.0,33.0,26.0,07.9,0000.0,0006.88,0003.12,0001.46
2022-03-31 16:43:00,,0819.0,5.00,0.00,24.2,23.4,00.0,33.0,26.0,07.6,0000.0,0006.85,0003.07,0001.43
2022-03-31 16:44:00,,0819.0,4.99,0.00,24.2,23.4,00.0,33.0,26.1,07.7,0000.0,0006.64,0002.97,0001.41
2022-03-31 16:45:00,,0818.9,5.00,0.00,24.2,23.4,00.0,33.0,26.1,07.8,0000.0,0006.59,0002.92,0001.39
2022-03-31 16:46:00,,0818.9,5.01,0.00,24.2,23.4,00.0,33.0,26.1,08.4,0000.0,0006.22,0002.85,0001.37
2022-03-31 16:47:00,,0819.0,5.00,0.00,24.2,23.4,00.0,33.0,26.1,07.7,0000.0,0006.43,0002.91,0001.34
2022-03-31 16:48:00,,0819.0,5.00,0.00,24.2,23.5,00.0,33.1,26.1,07.1,0000.0,0006.44,0002.94,0001.32
2022-03-31 16:49:00,,0819.0,4.99,0.00,24.2,23.5,00.0,33.1,26.1,06.6,0000.0,0006.33,0002.93,0001.28
2022-03-31 16:50:00,,0819.0,5.00,0.00,24.3,23.5,00.0,33.1,26.1,06.9,0000.0,0006.41,0002.91,0001.26
2022-03-31 16:51:00,,0818.9,5.01,0.00,24.3,23.5,00.0,33.1,26.1,07.0,0000.0,0006.24,0002.80,0001.23
2022-03-31 16:52:00,,0818.9,5.00,0.00,24.3,23.5,00.0,33.1,26.2,06.8,0000.0,0006.10,0002.76,0001.20
2022-03-31 16:53:00,,0818.9,4.99,0.00,24.3,23.5,00.0,33.1,26.2,07.0,0000.0,0005.95,0002.67,0001.16
2022-03-31 16:54:00,,0819.0,5.00,0.00,24.3,23.6,00.0,33.1,26.2,06.7,0000.0,0006.09,0002.73,0001.15
2022-03-31 16:55:00,,0819.0,5.01,0.00,24.3,23.6,00.0,33.2,26.2,07.0,0000.0,0006.20,0002.77,0001.13
2022-03-31 16:56:00,,0818.9,5.00,0.00,24.4,23.6,00.0,33.2,26.2,07.5,0000.0,0006.17,0002.73,0001.11
2022-03-31 16:57:00,,0818.9,5.00,0.00,24.4,23.6,00.0,33.2,26.3,07.4,0000.0,0006.00,0002.71,0001.10
2022-03-31 16:58:00,,0818.9,4.99,0.00,24.4,23.6,00.0,33.2,26.3,06.6,0000.0,0005.78,0002.55,0001.08
2022-03-31 16:59:00,,0819.0,5.00,0.00,24.4,23.7,00.0,33.2,26.3,06.6,0000.0,0005.78,0002.51,0001.07
